Regional Weather Roundup
Issued by NWS New Orleans/Baton Rouge, LA

Home | Current Version | Previous Version | Text Only | Print | Product List | Glossary Off
Versions: 1 2 3 4 5 6 7 8 9 10 11 12 13 14 15 16 17 18 19 20 21 22 23 24 25 26 27 28 29 30 31 32 33 34 35 36 37 38 39 40 41 42 43 44 45 46 47 48 49 50

873
ASUS44 KLIX 211401
RWRLIX
NEW ORLEANS REGIONAL WEATHER ROUNDUP
NATIONAL WEATHER SERVICE NEW ORLEANS LA
800 AM CST FRI NOV 21 2014

NOTE: "FAIR" INDICATES FEW OR NO CLOUDS BELOW 12,000 FEET WITH NO
      SIGNIFICANT WEATHER AND/OR OBSTRUCTIONS TO VISIBILITY.
      SKY/WX - SKY CONDITION AND SIGNIFICANT WEATHER.
      TMP - AIR TEMPERATURE.     DP    - DEWPOINT TEMPERATURE.
      RH  - RELATIVE HUMIDITY.   PRES  - PRESSURE.
      HI  - HEAT INDEX.          WCI   - WIND CHILL INDEX.

*  THESE STATIONS ARE NOT NWS OR FAA STATIONS AND ARE NOT UNDER
   NWS QUALITY CONTROL.

LAZ038-040-048-061>063-065>067-069-211500-
SOUTHEAST LOUISIANA

CITY           SKY/WX    TMP DP  RH WIND       PRES   REMARKS
N.O. AUDUBON   NOT AVBL
N.O. INTL ARPT MOSUNNY   57  47  69 E7        30.29R
N.O. LAKEFRONT SUNNY     56  49  77 E7        30.30R
N.O. DOWNTOWN*   N/A     59  45  58 SE3       30.29S
SLIDELL        SUNNY     47  43  86 CALM      30.31R
BATON ROUGE    PTSUNNY   52  47  83 E3        30.29R
BOOTHVILLE     SUNNY     59  52  77 E3        30.30R
BELLE CHASSE   MOSUNNY   57  48  72 E8        30.29R
BOGALUSA*        N/A     47  43  87 CALM      30.33R
NEW ROADS*     CLOUDY    53  48  83 E6        30.28R
GONZALES*      NOT AVBL
HAMMOND*       MOSUNNY   50  45  81 CALM      30.31S
HOUMA*         SUNNY     54  50  87 CALM      30.27R
PORT FOURCHON* SUNNY     64  52  63 E8        30.31R

$$

MSZ070-080>082-211500-
SOUTHERN MISSISSIPPI

CITY           SKY/WX    TMP DP  RH WIND       PRES   REMARKS
MCCOMB         PTSUNNY   51  45  79 CALM      30.31R
GULFPORT       SUNNY     50  46  86 E8        30.31R
BILOXI         SUNNY     48  47  99 NE6       30.32R
PASCAGOULA     SUNNY     49  46  90 CALM      30.33R
STENNIS ARPT*  SUNNY     50  45  81 CALM      30.32R

$$

COASTAL OBSERVATIONS
LAKE AND NEARSHORE STATIONS

STATION/POSITION TIME  TEMP    WIND        PRES    WAVE
                       AIR SEA DIR/SP/G            HT/PER
                 (UTC) (F)     (DEG/KT/KT) (MB)    (FT/S)
PASCAGOULA       1300   54      60/ 10/ 12 1025.9
WAVELAND YACHT   1300   51      60/  7/  8 1025.3
GRAND ISLE       1300   62 58  110/  5/ 10 1025.2
SOUTHWEST PASS   1300   64 72              1025.4
NEW CANAL        1300   54 53   CALM  /  2 1026.0
SHELL BEACH      1300   55 49   70/  4/  4 1025.7

OFFSHORE STATIONS

STATION/POSITION TIME  TEMP    WIND        PRES    WAVE
                       AIR SEA DIR/SP/G            HT/PER
                 (UTC) (F)     (DEG/KT/KT) (MB)    (FT/S)
64 S DAUPHIN ISL 1345   65 72   90/ 14/ 17 1026.7    2/ 6

$$




USA.gov is the U.S. government's official web portal to all federal, state and local government web resources and services.